TimeEST,TemperatureF,Dew PointF,Humidity,Sea Level PressureIn,VisibilityMPH,Wind Direction,Wind SpeedMPH,Gust SpeedMPH,PrecipitationIn,Events,Conditions,WindDirDegrees,DateUTC
12:53 AM,69.1,63.0,81,29.94,10.0,Calm,Calm,-,N/A,,Scattered Clouds,0,2012-12-07 05:53:00
1:53 AM,68.0,64.0,87,29.93,10.0,WSW,3.5,-,N/A,,Scattered Clouds,240,2012-12-07 06:53:00
2:53 AM,66.0,64.0,93,29.92,10.0,Calm,Calm,-,N/A,,Scattered Clouds,0,2012-12-07 07:53:00
3:53 AM,66.0,64.0,93,29.91,9.0,Calm,Calm,-,N/A,,Scattered Clouds,0,2012-12-07 08:53:00
4:53 AM,66.0,64.0,93,29.93,10.0,Calm,Calm,-,N/A,,Partly Cloudy,0,2012-12-07 09:53:00
5:53 AM,68.0,64.0,87,29.94,10.0,SE,4.6,-,0.00,Rain,Light Rain,130,2012-12-07 10:53:00
6:53 AM,66.0,64.0,93,29.94,10.0,Calm,Calm,-,0.00,,Mostly Cloudy,0,2012-12-07 11:53:00
7:53 AM,68.0,64.9,90,29.95,10.0,Calm,Calm,-,N/A,,Scattered Clouds,0,2012-12-07 12:53:00
8:53 AM,73.0,68.0,84,29.98,10.0,Calm,Calm,-,0.00,,Mostly Cloudy,0,2012-12-07 13:53:00
9:37 AM,75.2,68.0,78,29.99,10.0,Calm,Calm,-,N/A,,Mostly Cloudy,0,2012-12-07 14:37:00
9:53 AM,75.9,66.9,74,29.99,10.0,Variable,6.9,-,N/A,,Mostly Cloudy,0,2012-12-07 14:53:00
10:42 AM,78.8,64.4,61,29.98,10.0,SSE,10.4,-,N/A,,Mostly Cloudy,160,2012-12-07 15:42:00
10:53 AM,78.1,64.9,64,29.98,10.0,SSE,10.4,-,N/A,,Mostly Cloudy,150,2012-12-07 15:53:00
11:53 AM,79.0,66.0,64,29.97,10.0,SE,12.7,-,N/A,,Scattered Clouds,140,2012-12-07 16:53:00
12:53 PM,81.0,64.9,58,29.94,10.0,SSE,8.1,-,N/A,,Scattered Clouds,150,2012-12-07 17:53:00
1:53 PM,81.0,64.9,58,29.92,10.0,SE,11.5,-,N/A,,Scattered Clouds,130,2012-12-07 18:53:00
2:53 PM,80.1,66.0,62,29.91,10.0,ESE,10.4,-,N/A,,Scattered Clouds,120,2012-12-07 19:53:00
3:53 PM,78.1,66.9,68,29.91,10.0,SE,11.5,-,N/A,,Scattered Clouds,140,2012-12-07 20:53:00
4:53 PM,77.0,66.0,69,29.92,10.0,SE,10.4,-,N/A,,Scattered Clouds,140,2012-12-07 21:53:00
5:53 PM,75.0,64.9,71,29.93,10.0,SE,6.9,-,N/A,,Scattered Clouds,130,2012-12-07 22:53:00
6:53 PM,73.9,66.0,76,29.95,10.0,ESE,5.8,-,N/A,,Partly Cloudy,120,2012-12-07 23:53:00
7:53 PM,73.9,66.0,76,29.96,10.0,ESE,5.8,-,N/A,,Partly Cloudy,120,2012-12-08 00:53:00
8:53 PM,73.9,66.0,76,29.98,10.0,ESE,3.5,-,N/A,,Partly Cloudy,120,2012-12-08 01:53:00
9:53 PM,73.0,66.0,79,29.98,10.0,SSE,5.8,-,N/A,,Partly Cloudy,150,2012-12-08 02:53:00
10:53 PM,73.0,64.9,76,29.98,10.0,SE,4.6,-,N/A,,Partly Cloudy,130,2012-12-08 03:53:00
11:53 PM,73.0,64.9,76,29.98,10.0,SE,3.5,-,N/A,,Partly Cloudy,140,2012-12-08 04:53:00